Find Kosmos-2580

NORAD ID: 62216 Int'l Des: 2024-230 Owner: VVKOV Country: RU operational
LEOCIRCULAR

現在のビュー

3D地球を読み込み中...

About Kosmos-2580

Kosmos-2580 (NORAD 62216) is a satellite launched Dec 4, 2024 by VVKOV of RU. It operates in LEO, CIRCULAR orbit with a mass of 6575.00 kg.

次回通過

Passes for default location (London). Set your location on the main map for personalized predictions.

高度履歴

Loading altitude history...

軌道要素

1 62216U 24230A 26194.87420292 -.00000075 00000-0 30499-6 0 9998
2 62216 67.1495 345.9817 0005980 262.4749 97.5656 13.96674282 81863
Epoch: Jul 13, 2026 • Age: 7 hours

現在のステータス

高度 907.9 km
遠地点 / 近地点 N/A
速度 7.40 km/s
衛星直下点 2.72°N, 3.65°W
打ち上げ日 Dec 4, 2024
運用期間 1.6 years
タイプ other

技術仕様

分類 Payload
質量 6575.00 kg
乾燥質量 6500.00 kg
総質量 6575.00 kg
長さ 6.30 m
直径 2.70 m
スパン 6.30 m
形状 Cyl + 2 Pan
製造者 TSSKBP/ARSLO
バスタイプ Yantar'-Lotos
フェーズステータス In Orbit
所有者/国 VVKOV/RU

Most Searched